Regional Weather Roundup
Issued by NWS Little Rock, AR

Home | Current Version | Previous Version | Graphics & Text | Print | Product List | Glossary On
Versions: 1 2 3 4 5 6 7 8 9 10 11 12 13 14 15 16 17 18 19 20 21 22 23 24 25 26 27 28 29 30 31 32 33 34 35 36 37 38 39 40 41
000
ASUS44 KLZK 021205
RWRLZK

WEATHER ROUNDUP FOR ARKANSAS
NATIONAL WEATHER SERVICE LITTLE ROCK AR
700 AM CDT THU OCT 02 2014

NOTE: "FAIR" INDICATES FEW OR NO CLOUDS BELOW 12,000 FEET WITH NO
SIGNIFICANT WEATHER AND/OR OBSTRUCTIONS TO VISIBILITY.

ARZ001-003-010-029-021300-
NORTHWEST ARKANSAS

CITY           SKY/WX    TMP DP  RH WIND       PRES   REMARKS
FAYETTEVILLE   CLOUDY    73  70  90 S12       29.84R
6HR MIN TEMP:  73; 6HR MAX TEMP:  75;

FORT SMITH     CLOUDY    75  70  84 SE5       29.81F
6HR MIN TEMP:  73; 6HR MAX TEMP:  75;

HARRISON       CLOUDY    74  69  85 VRB5      29.86R
6HR MIN TEMP:  72; 6HR MAX TEMP:  75;

BENTONVILLE    CLOUDY    73  68  83 S8        29.83F
6HR MIN TEMP:  73; 6HR MAX TEMP:  75;

ROGERS         CLOUDY    73  68  84 SE7       29.84R
6HR MIN TEMP:  72; 6HR MAX TEMP:  74;

SILOAM SPGS    CLOUDY    73  64  73 S9        29.84S
6HR MIN TEMP:  73; 6HR MAX TEMP:  75;

HIGHFILL       CLOUDY    73  69  87 S10       29.82R
6HR MIN TEMP:  72; 6HR MAX TEMP:  74;

$$

ARZ004-005-016-021300-
NORTH CENTRAL ARKANSAS

CITY           SKY/WX    TMP DP  RH WIND       PRES   REMARKS
BATESVILLE     CLOUDY   N/A N/A N/A S10G16    29.87S
FLIPPIN        MOCLDY    72  64  78 CALM      29.85S
6HR MIN TEMP:  70; 6HR MAX TEMP:  72;

MTN HOME       CLOUDY    71  69  93 CALM      29.86R
6HR MIN TEMP:  70; 6HR MAX TEMP:  72;

$$

ARZ040-041-021300-
WEST CENTRAL ARKANSAS

CITY           SKY/WX    TMP DP  RH WIND       PRES   REMARKS
MENA           CLOUDY    77  73  88 CALM      29.88R
MOUNT IDA      CLOUDY    77  72  84 CALM      29.85R
6HR MIN TEMP:  77; 6HR MAX TEMP:  78;

$$

ARZ009-017-025-026-028-021300-
NORTHEAST ARKANSAS

CITY           SKY/WX    TMP DP  RH WIND       PRES   REMARKS
CORNING          N/A     68  66  94 SE9       29.89S
JONESBORO      PTCLDY    68  66  93 S3        29.90R
6HR MIN TEMP:  68; 6HR MAX TEMP:  71;

NEWPORT        MOCLDY    73  70  91 S10       29.89S
6HR MIN TEMP:  69; 6HR MAX TEMP:  74;

WALNUT RIDGE   PTCLDY    70  66  88 S8        29.88S
6HR MIN TEMP:  70; 6HR MAX TEMP:  73;

BLYTHEVILLE    CLEAR     69  65  86 S6        29.93R
6HR MIN TEMP:  69; 6HR MAX TEMP:  72;

$$

ARZ022-023-033-042-044-021300-
CENTRAL ARKANSAS

CITY           SKY/WX    TMP DP  RH WIND       PRES   REMARKS
LITTLE ROCK    CLOUDY    76  71  85 SW9       29.89R
6HR MIN TEMP:  73; 6HR MAX TEMP:  76;

N LITTLE ROCK    N/A     74  73  97 SW7       29.89R
6HR MIN TEMP:  73; 6HR MAX TEMP:  75;

JACKSONVILLE   CLOUDY    74  71  92 S2        29.89R
6HR MIN TEMP:  72; 6HR MAX TEMP:  75;

SEARCY         CLOUDY    73  71  93 S7        29.90R
6HR MIN TEMP:  70; 6HR MAX TEMP:  73;

HOT SPRINGS    CLOUDY    76  72  87 S9        29.89R
6HR MIN TEMP:  75; 6HR MAX TEMP:  77;

RUSSELLVILLE   CLOUDY    76  71  85 CALM      29.86R
6HR MIN TEMP:  73; 6HR MAX TEMP:  77;

CLINTON        MOCLDY    73  73 100 CALM      29.88R FOG
$$

ARZ036-021300-
EAST ARKANSAS

CITY           SKY/WX    TMP DP  RH WIND       PRES   REMARKS
WEST MEMPHIS   CLEAR     72  70  93 S12       29.92R
6HR MIN TEMP:  68; 6HR MAX TEMP:  72;

$$

ARZ050-053-066-070-073-021300-
SOUTHWEST ARKANSAS

CITY           SKY/WX    TMP DP  RH WIND       PRES   REMARKS
ARKADELPHIA    CLOUDY    75  75 100 CALM      29.89R
6HR MIN TEMP:  72; 6HR MAX TEMP:  75;

CAMDEN         PTCLDY    73  72  94 S7        29.89R
TEXARKANA      CLOUDY    75  74  96 S7        29.88R
6HR MIN TEMP:  74; 6HR MAX TEMP:  76;

EL DORADO      MOCLDY    73  72  96 SE3       29.90R
6HR MIN TEMP:  73; 6HR MAX TEMP:  76;

DE QUEEN       MOCLDY    74  72  93 S3        29.84R
6HR MIN TEMP:  70; 6HR MAX TEMP:  74;

$$

ARZ056-057-069-021300-
SOUTHEAST ARKANSAS

CITY           SKY/WX    TMP DP  RH WIND       PRES   REMARKS
PINE BLUFF     MOCLDY    75  72  90 S8        29.90R
6HR MIN TEMP:  69; 6HR MAX TEMP:  75;

STUTTGART      CLOUDY   N/A N/A N/A S9        29.90R
MONTICELLO     MOCLDY    76  72  87 S5        29.91R
6HR MIN TEMP:  74; 6HR MAX TEMP:  76;


$$




USA.gov is the U.S. government's official web portal to all federal, state and local government web resources and services.